Location: Bocianicha
(51.5066°N, 19.2563°E)
Time: 13:04:30
(UTC+00:00)

SJ 16-02 - Pass Details

Date: 15 June 2025
Orbit: 588 x 596 km, 75.0° (Epoch: 18 July)

Event Time Altitude Azimuth Distance (km) Brightness Sun altitude
Exits shadow 00:15:29 11° 244° (WSW) 1,894 3.4 -12.5°
Maximum altitude 00:19:09 29° 304° (NW) 1,107 2.8 -12.3°
Drops below altitude 10° 00:22:57 10° 6° (N) 1,945 5.2 -12.1°
Sets 00:25:26 0° 18° (NNE) 2,850 6.8 -11.9°
